CAPE
5 3 3 2 2 nan nan nan nan nan nan nan nan nan nan 1 0 0 0 nan nan nan nan nan nan 2 10 41 69 69 90 98 95 95 94 98 112 112 101 91 91 78 74 70 70 64 74 89 89 117 135 127 116 116 117 109 109 122 164 186 186 213 222 256 256 327 371 478 507 507 537 561 549 549 566 509 501 501 548 602 602 624 588 457 457 362
0 0 nan nan nan nan nan nan nan nan nan nan nan nan nan nan nan nan 1 0 0 nan nan nan nan 2 5 18 51 51 61 71 72 72 73 80 86 86 88 80 80 79 85 74 74 86 99 117 117 135 131 136 112 112 111 102 102 94 110 127 127 157 181 201 201 246 265 354 411 411 469 465 450 450 435 408 405 405 451 502 502 605 598 467 467 305
0 nan nan nan nan nan nan nan nan nan 0 0 0 0 0 0 0 0 1 0 0 1 0 1 1 2 2 6 31 31 35 43 47 47 54 54 61 61 79 82 82 87 76 95 95 112 125 148 148 142 139 120 83 83 66 62 62 66 69 83 83 100 115 145 145 152 172 195 237 237 314 339 326 326 255 274 326 326 376 431 431 563 612 512 512 350
9 2 nan nan nan 0 nan nan 0 0 3 5 6 6 5 6 6 6 4 1 1 5 6 5 5 4 2 2 17 17 31 39 48 48 54 49 56 56 73 98 98 111 126 137 137 108 101 111 111 112 87 51 36 36 30 42 42 50 35 40 40 44 50 47 47 61 65 94 135 135 164 170 137 137 122 172 272 272 349 435 435 520 567 525 525 414
17 6 2 2 2 1 2 3 6 6 10 13 11 11 14 14 14 14 14 14 14 11 8 9 9 7 3 4 16 16 35 47 62 62 72 80 89 89 104 125 125 134 160 128 128 86 48 46 46 41 24 9 7 7 16 31 31 39 28 21 21 19 14 8 8 4 4 12 23 23 42 47 35 35 42 113 250 250 356 413 413 440 461 507 507 501
16 13 12 8 8 4 8 11 15 15 19 18 18 18 17 23 22 22 23 17 17 14 9 8 8 6 3 3 19 19 36 54 75 75 100 122 136 136 141 135 135 138 106 71 71 40 25 10 10 4 0 nan 1 1 15 36 36 38 24 15 15 3 0 nan nan nan 1 4 7 7 10 13 17 17 30 81 178 178 284 312 312 360 327 431 431 542
22 21 22 16 16 14 14 17 25 25 20 20 22 22 27 30 27 27 23 16 16 11 7 7 7 6 5 7 17 17 36 56 80 80 98 108 127 127 120 109 109 88 70 52 52 32 28 14 14 nan nan nan 1 1 23 43 43 26 13 3 3 0 nan nan nan nan 0 4 7 7 7 6 7 7 15 34 82 82 161 213 213 233 194 295 295 489
60 61 55 43 43 43 35 32 29 29 29 25 27 27 24 14 13 13 19 20 20 17 9 5 5 1 0 1 4 4 10 10 6 6 19 23 41 41 56 64 64 62 51 37 37 32 29 31 31 20 16 14 43 43 63 35 35 9 3 nan nan nan nan nan nan nan nan nan 2 2 9 11 8 8 6 7 10 10 15 21 21 46 50 89 89 193
97 100 103 93 93 74 50 41 38 38 31 36 39 39 36 26 18 18 14 9 9 11 6 4 4 2 1 5 9 9 14 17 15 15 20 20 36 36 62 81 81 79 80 64 64 50 52 52 52 52 47 55 86 86 85 31 31 8 2 nan nan nan nan nan nan nan nan nan nan nan 4 13 10 10 7 4 3 3 3 6 6 9 20 83 83 227
128 152 157 118 118 68 44 39 26 26 35 44 47 47 44 37 23 23 16 8 8 4 5 11 11 9 8 13 19 19 21 31 47 47 53 77 88 88 119 128 128 136 104 85 85 80 83 83 83 87 84 92 96 96 47 15 15 7 3 1 1 nan nan nan nan nan nan nan nan nan 1 10 13 13 10 5 3 3 1 2 2 3 7 79 79 255
151 144 118 60 60 34 28 33 34 34 47 42 35 35 25 25 28 28 20 14 14 10 10 16 16 21 23 21 24 24 26 25 31 31 60 108 135 135 132 108 108 81 89 86 86 89 97 102 102 105 106 85 59 59 32 13 13 5 4 2 2 nan nan nan nan nan nan nan nan nan 0 4 14 14 15 9 4 4 2 1 1 2 7 36 36 144
124 83 47 32 32 30 26 27 32 32 48 35 27 27 18 21 33 33 24 22 22 19 19 21 21 28 32 26 31 31 30 32 47 47 70 103 97 97 57 31 31 29 39 57 57 83 102 112 112 110 80 61 44 44 29 15 15 5 1 nan nan nan nan nan nan nan nan nan nan nan nan 2 10 10 17 12 8 8 3 2 2 2 6 10 10 65
67 47 23 25 25 24 35 36 29 29 35 25 22 22 22 17 22 22 27 37 37 33 32 40 40 42 52 53 50 50 48 50 83 83 75 59 38 38 26 20 20 20 64 113 113 125 103 91 91 67 53 44 36 36 20 4 4 nan nan nan nan nan nan nan nan nan nan nan nan nan nan 1 6 6 12 12 9 9 5 3 3 2 3 8 8 21
30 27 30 31 31 27 30 40 42 42 36 23 25 25 22 24 21 21 28 37 37 43 46 55 55 51 58 55 63 63 74 82 71 71 58 48 56 56 50 66 66 87 140 117 117 90 36 6 6 5 14 13 14 14 2 nan nan nan nan nan nan nan nan nan nan nan 1 1 0 0 0 1 4 4 8 9 9 9 6 3 3 1 1 2 2 6
32 38 28 30 30 40 41 79 69 69 37 25 24 24 21 30 35 35 47 72 72 68 73 74 74 75 73 70 90 90 86 93 75 75 67 70 93 93 133 153 153 150 90 19 19 1 nan nan nan nan nan 1 0 0 nan nan nan nan nan nan nan nan nan nan nan 0 1 3 2 2 2 3 4 4 5 7 8 8 5 2 2 0 0 0 0 0
33 40 35 40 40 52 86 100 52 52 32 37 36 36 38 51 55 55 100 108 108 104 88 87 87 93 118 122 131 131 112 111 120 120 147 194 278 278 300 216 216 110 34 nan nan nan nan nan nan nan nan 0 0 0 nan nan nan nan nan nan nan nan nan nan nan 0 2 3 4 4 3 4 4 4 5 6 6 6 4 2 2 1 0 nan nan nan
48 41 41 53 53 69 122 72 22 22 26 33 51 51 50 71 88 88 106 114 114 91 78 76 76 70 113 188 172 172 182 160 160 160 145 135 128 128 182 125 125 43 12 2 2 nan nan nan nan nan nan nan nan nan nan nan nan nan nan nan nan nan nan nan nan 0 2 3 4 4 5 5 5 5 6 5 4 4 3 2 2 1 0 nan nan nan
55 64 61 64 64 62 70 22 28 28 32 38 52 52 44 72 88 88 109 90 90 52 65 67 67 68 79 91 76 76 113 107 76 76 46 27 19 19 37 43 43 25 14 10 10 5 2 nan nan nan nan nan nan nan nan nan nan nan nan nan nan nan nan nan nan 1 2 4 4 4 4 5 6 6 6 5 3 3 3 2 2 2 1 0 0 nan
47 58 55 68 68 63 37 25 28 28 30 46 47 47 50 77 119 119 106 79 79 65 72 58 58 57 52 27 13 13 13 19 16 16 17 14 13 13 21 25 25 28 21 17 17 13 9 4 4 3 nan nan nan nan nan nan nan nan nan nan nan nan 0 1 1 3 4 5 5 5 4 5 5 5 6 6 5 5 3 3 3 2 2 1 1 nan
50 53 80 75 75 53 39 39 38 38 44 57 68 68 75 81 74 74 36 62 62 66 38 33 33 23 18 15 8 8 9 12 15 15 18 15 15 15 16 21 21 30 25 18 18 12 13 8 8 12 5 1 nan nan nan nan nan nan nan 0 0 2 3 5 5 5 6 6 6 6 4 5 5 5 6 6 5 5 4 3 3 3 3 1 1 0
43 84 124 88 88 48 43 39 42 42 62 76 72 72 56 52 72 72 106 104 104 39 16 11 11 10 9 10 10 10 14 14 15 15 19 23 28 28 21 29 29 36 30 19 19 19 34 19 19 36 23 11 3 3 nan nan nan nan 0 2 2 4 5 5 5 5 6 6 5 5 5 5 5 5 6 5 4 4 4 3 3 3 2 1 1 0
85 90 72 65 65 63 57 54 66 66 79 93 45 45 39 55 96 96 111 42 42 24 25 29 29 25 18 14 15 15 21 21 20 20 18 40 49 49 38 45 45 53 52 45 45 53 54 38 38 31 24 8 0 0 nan nan nan nan 0 2 2 2 4 3 3 4 4 5 5 5 6 5 5 5 4 4 3 3 3 3 3 2 2 1 1 0
87 64 61 76 76 71 65 58 76 76 105 119 88 88 67 99 96 96 79 60 60 49 60 53 53 39 23 17 21 21 21 25 33 33 27 43 87 87 82 89 89 88 103 107 107 68 61 58 58 35 8 nan nan nan nan nan nan nan nan 1 1 2 2 2 2 3 4 5 6 6 6 6 4 4 4 3 2 2 2 2 2 2 1 1 1 0
44 48 66 78 78 83 86 89 119 119 135 133 167 167 177 146 85 85 33 52 52 60 71 63 63 56 35 25 31 31 63 85 55 55 26 16 29 29 35 34 34 45 56 34 34 38 66 45 45 5 nan nan nan nan nan nan nan nan nan 0 0 1 2 1 1 2 3 6 6 6 6 6 4 4 4 3 2 2 1 1 1 1 0 0 0 0
35 50 68 83 83 112 114 108 118 118 144 127 106 106 112 143 132 132 93 62 62 64 70 62 62 55 42 45 44 44 43 31 21 21 10 10 4 4 1 10 10 13 6 2 2 10 20 7 7 0 nan nan nan nan nan nan nan nan nan 1 1 2 2 2 2 3 4 7 6 6 7 5 5 5 4 3 1 1 0 0 0 0 0 nan nan nan
81 93 106 129 129 185 209 212 228 228 233 102 68 68 85 109 86 86 56 51 51 64 73 43 43 28 20 17 9 9 7 19 22 22 18 13 13 13 8 12 12 15 8 3 3 6 12 5 5 2 nan nan nan nan nan nan nan nan 2 5 5 5 4 4 4 4 4 5 5 5 3 3 4 4 3 1 nan nan nan nan nan nan nan nan nan nan
163 196 226 236 236 257 269 274 267 267 232 135 85 85 91 66 48 48 32 47 47 57 38 29 29 21 16 11 9 9 14 17 17 17 20 12 8 8 5 8 8 13 12 8 8 18 32 25 25 25 15 nan nan nan nan 0 0 3 8 9 9 8 6 5 5 4 3 2 2 2 3 4 2 2 nan nan nan nan nan nan nan nan nan nan nan nan
156 177 182 204 204 236 255 223 165 165 129 137 167 167 119 54 33 33 20 30 30 38 23 26 26 20 20 18 18 18 24 18 13 13 11 8 8 8 5 12 12 22 22 37 37 57 50 34 34 30 10 nan nan nan nan 2 2 7 10 9 9 8 6 3 3 1 1 1 3 3 2 0 nan nan nan nan nan nan nan nan nan nan nan nan nan nan
102 109 130 152 152 150 123 103 95 95 104 111 134 134 119 43 23 23 28 38 38 30 30 28 28 21 23 28 22 22 15 9 10 10 12 15 15 15 25 29 29 43 46 54 54 54 23 22 22 12 nan nan nan nan 1 4 4 6 6 7 7 6 3 1 1 0 1 2 0 0 nan nan nan nan nan nan nan nan nan nan nan nan nan nan nan nan
48 62 72 76 76 72 64 52 63 63 86 101 121 121 127 63 31 31 35 47 47 38 38 40 40 33 28 25 13 13 7 5 18 18 47 39 52 52 68 57 57 42 43 38 38 19 10 2 2 nan nan 0 1 1 2 2 2 2 3 7 7 5 1 2 2 1 3 4 1 1 nan nan nan nan nan nan nan nan nan nan nan nan nan nan nan nan
13 14 19 27 27 28 25 17 36 36 71 94 126 126 133 64 51 51 60 50 50 36 40 40 40 37 35 23 12 12 5 6 31 31 63 31 16 16 25 30 30 27 32 27 27 12 13 nan nan nan 0 2 2 2 2 1 1 0 1 6 6 6 13 4 4 6 7 2 nan nan nan nan nan nan nan nan nan nan nan nan nan nan nan nan nan nan
6 8 9 8 8 7 6 9 19 19 43 78 70 70 70 64 59 59 52 54 54 45 34 35 35 35 33 22 15 15 8 9 13 13 28 19 20 20 37 43 43 58 81 84 84 52 18 24 24 nan nan nan nan nan nan 0 0 0 1 3 3 2 1 0 0 2 1 4 4 4 4 2 3 3 3 3 3 3 1 1 1 nan nan nan nan nan
8 7 9 8 8 9 10 16 35 35 67 68 44 44 42 52 72 72 64 55 55 40 26 26 26 29 26 20 13 13 10 10 19 19 33 29 22 22 34 36 36 38 46 36 36 26 20 19 19 10 1 nan nan nan nan nan nan 0 1 2 2 1 0 0 0 1 2 5 7 7 10 9 10 10 9 9 8 8 7 7 7 2 nan nan nan nan
5 11 13 12 12 12 18 36 56 56 67 49 47 47 46 52 63 63 65 56 56 37 25 15 15 20 20 16 13 13 9 10 23 23 38 31 19 19 22 23 23 20 17 8 8 12 17 16 16 12 7 1 nan nan nan nan nan nan 0 1 1 1 0 nan nan nan nan nan nan nan 2 9 21 21 14 16 15 15 13 13 13 8 5 0 0 nan
6 11 13 13 13 14 28 38 54 54 54 45 39 39 40 44 41 41 35 36 36 31 22 12 12 14 13 8 12 12 8 8 18 18 30 25 17 17 18 17 17 12 7 7 7 7 11 14 14 12 8 7 nan nan nan nan nan nan 0 1 1 0 nan nan nan nan nan nan nan nan nan nan 6 6 10 13 14 14 15 14 14 12 9 6 6 2
6 9 18 16 16 19 26 32 41 41 45 40 29 29 34 34 24 24 16 12 12 22 23 17 17 14 7 11 8 8 9 10 20 20 25 17 9 9 6 8 8 7 6 4 4 5 7 10 10 14 14 7 nan nan nan nan nan nan nan 0 0 0 nan nan nan nan nan nan nan nan nan 2 9 9 10 14 13 13 11 10 10 11 8 6 6 3
9 12 18 17 17 21 27 28 33 33 33 27 31 31 33 28 21 21 11 10 10 11 15 25 25 17 20 8 4 4 10 13 15 15 19 12 3 3 nan 2 2 4 3 4 4 4 5 8 8 12 13 6 nan nan nan nan nan nan nan nan nan nan nan nan nan nan nan nan nan nan 0 5 12 12 16 20 13 13 15 16 16 13 12 11 11 8
11 15 18 19 19 19 25 27 28 28 26 19 24 24 30 27 22 22 12 11 11 12 15 11 11 11 31 29 15 15 13 13 13 13 15 6 0 0 0 0 0 2 3 4 4 5 7 9 9 13 12 1 nan nan nan nan nan nan nan nan nan nan nan nan nan nan nan 0 1 1 4 9 12 12 14 12 6 6 6 8 8 17 16 17 17 17
13 15 17 18 18 20 24 23 24 24 20 22 28 28 31 28 22 22 11 9 9 12 15 14 14 10 8 10 20 20 18 11 9 9 6 1 1 1 0 0 0 1 3 4 4 7 8 9 9 13 11 nan nan nan nan nan nan nan nan nan nan nan nan nan nan 0 0 1 3 3 2 1 9 9 10 6 4 4 1 3 3 11 11 9 9 19
13 16 17 20 20 21 27 26 21 21 19 26 36 36 34 21 13 13 7 10 10 13 16 20 20 11 11 11 12 12 11 7 13 13 5 2 3 3 2 1 1 2 3 4 4 6 8 9 9 12 13 nan nan nan nan nan nan nan nan nan nan nan nan nan nan nan 0 1 1 1 0 0 1 1 3 4 2 2 2 2 2 6 8 3 3 3
17 18 15 16 16 22 25 26 21 21 23 17 17 17 21 11 5 5 4 7 7 13 17 24 24 12 10 6 3 3 2 3 9 9 4 4 8 8 4 3 3 3 3 4 4 6 7 7 7 11 12 nan nan nan nan nan nan 0 0 nan nan nan nan nan nan nan nan nan 0 0 1 1 0 0 0 0 nan nan 2 2 2 4 4 4 4 1
23 19 15 12 12 11 12 17 22 22 23 15 20 20 16 10 5 5 8 9 9 9 12 14 14 10 6 5 3 3 1 0 3 3 8 8 9 9 7 4 4 3 3 4 4 6 8 10 10 12 7 nan nan nan nan nan nan 1 nan nan nan nan nan nan nan nan nan nan nan nan 1 nan nan nan nan nan nan nan 1 2 2 5 2 1 1 1
14 10 10 11 11 9 13 22 18 18 15 10 17 17 20 13 11 11 10 9 9 11 11 10 10 8 6 4 3 3 2 4 6 6 8 9 8 8 8 4 4 1 2 5 5 8 10 12 12 6 nan nan nan nan nan nan nan nan nan nan nan nan nan nan nan nan nan nan nan nan nan nan nan nan nan nan nan nan nan 5 5 5 2 nan nan 0
12 8 9 10 10 12 17 14 9 9 10 14 22 22 21 20 15 15 13 7 7 9 7 4 4 7 5 5 3 3 3 7 6 6 6 8 8 8 7 4 4 2 1 2 2 1 0 0 0 nan nan nan nan nan nan nan nan nan nan nan nan nan nan nan nan nan nan nan nan nan nan nan nan nan nan nan nan nan nan nan nan nan nan nan nan nan
5 6 9 12 12 10 7 7 7 7 9 20 26 26 23 19 18 18 9 6 6 8 6 4 4 2 3 4 4 4 5 2 2 2 3 6 9 9 5 2 2 1 0 0 0 0 nan nan nan nan nan nan nan nan nan nan nan nan 0 nan nan nan nan nan nan nan nan nan nan nan nan nan nan nan nan nan nan nan nan nan nan nan nan nan nan nan
7 8 9 8 8 8 13 9 9 9 11 20 26 26 19 16 13 13 14 10 10 6 4 2 2 2 4 5 6 6 3 1 0 0 0 0 2 2 3 4 4 2 1 0 0 0 0 nan nan 0 nan nan nan nan nan nan nan nan nan nan nan nan nan nan nan nan nan nan nan nan nan nan nan nan nan nan nan nan nan nan nan nan nan nan nan nan
7 5 4 5 5 4 5 9 8 8 12 22 20 20 15 11 13 13 13 13 13 8 6 3 3 3 5 5 3 3 1 0 nan nan nan 0 1 1 1 2 2 4 3 1 1 0 0 0 0 0 nan nan nan nan nan nan nan nan nan nan nan nan nan nan nan nan nan nan nan nan nan nan nan nan nan nan nan nan nan nan nan nan nan nan nan nan
9 8 4 4 4 3 6 9 8 8 14 19 20 20 14 10 12 12 10 10 10 7 5 2 2 3 3 3 2 2 1 0 0 0 0 0 0 0 0 0 0 2 3 3 3 1 0 0 0 nan nan nan nan nan nan nan nan nan nan nan nan nan nan nan nan nan nan nan nan nan nan nan nan nan nan nan nan nan nan nan nan nan nan nan nan nan
6 4 5 5 5 4 6 5 8 8 17 21 16 16 10 15 29 29 7 3 3 3 2 2 2 2 2 1 2 2 3 1 0 0 0 0 0 0 nan nan nan nan 0 1 1 1 1 1 1 1 nan nan nan nan nan nan nan nan nan nan nan nan nan nan nan nan nan nan nan nan nan nan nan nan nan nan nan nan nan nan nan nan nan nan nan nan
5 2 6 3 3 3 2 5 8 8 23 24 12 12 6 7 3 3 2 0 0 1 0 1 1 1 2 1 1 1 1 0 0 0 0 0 0 0 nan nan nan nan nan nan nan nan 0 1 1 4 6 0 nan nan nan nan nan nan nan nan nan nan nan nan nan nan nan nan nan nan nan nan nan nan nan nan nan nan nan nan nan nan nan nan nan nan
4 5 6 2 2 2 3 4 14 14 24 21 10 10 4 3 2 2 0 1 1 0 1 1 1 3 3 1 1 1 1 0 0 0 0 0 0 0 0 nan nan nan nan nan nan nan nan nan nan 0 7 15 1 1 nan nan nan nan nan nan nan nan nan nan nan nan nan nan nan nan nan nan nan nan nan nan nan nan nan nan nan nan nan nan nan nan
CIN
-0 -0 -0 -0 -0 nan nan nan nan nan nan nan nan nan nan -0 -0 -0 -0 nan nan nan nan nan nan -0 -1 -20 -17 -17 -9 -5 -4 -4 -6 -8 -10 -10 -11 -12 -12 -13 -12 -12 -12 -12 -11 -9 -9 -7 -6 -6 -7 -7 -5 -3 -3 -1 -0 -0 -0 -0 -0 -0 -0 -0 -0 -0 -0 -0 -0 -0 -0 -0 -0 -0 -0 -0 -0 -0 -0 -1 -3 -1 -1 -0
-0 -0 nan nan nan nan nan nan nan nan nan nan nan nan nan nan nan nan -0 -0 -0 nan nan nan nan -0 -0 -3 -10 -10 -7 -3 -2 -2 -3 -5 -7 -7 -9 -9 -9 -9 -9 -10 -10 -10 -8 -7 -7 -5 -5 -5 -7 -7 -8 -9 -9 -8 -6 -4 -4 -1 -0 -0 -0 -0 -0 -0 -0 -0 -0 -0 -0 -0 -0 -0 -0 -0 -0 -0 -0 -0 -2 -1 -1 -0
-0 nan nan nan nan nan nan nan nan nan -0 -0 -0 -0 -0 -0 -0 -0 -0 -0 -0 -0 -0 -0 -0 -0 -0 -0 -4 -4 -2 -0 -0 -0 -1 -4 -7 -7 -7 -8 -8 -7 -8 -9 -9 -8 -4 -2 -2 -2 -4 -5 -7 -7 -8 -11 -11 -12 -12 -11 -11 -8 -5 -2 -2 -2 -0 -0 -2 -2 -4 -4 -2 -2 -2 -1 -1 -1 -0 -0 -0 -0 -1 -2 -2 -0
-0 -0 nan nan nan -0 nan nan -0 -0 -0 -0 -0 -0 -0 -0 -0 -0 -0 -0 -0 -0 -0 -0 -0 -0 -0 -0 -0 -0 -0 -0 -0 -0 -0 -3 -5 -5 -5 -4 -4 -4 -4 -4 -4 -3 -2 -1 -1 -2 -3 -6 -20 -20 -19 -10 -10 -11 -12 -13 -13 -11 -9 -8 -8 -6 -6 -5 -6 -6 -8 -9 -8 -8 -5 -2 -1 -1 -0 -0 -0 -0 -0 -2 -2 -1
-0 -0 -0 -0 -0 -0 -0 -0 -0 -0 -0 -0 -0 -0 -0 -0 -0 -0 -0 -0 -0 -0 -0 -0 -0 -0 -0 -0 -0 -0 -0 -0 -0 -0 -0 -1 -4 -4 -2 -0 -0 -0 -1 -3 -3 -4 -4 -3 -3 -3 -5 -62 -43 -43 -31 -10 -10 -11 -12 -12 -12 -11 -9 -8 -8 -9 -11 -10 -12 -12 -12 -12 -12 -12 -7 -3 -1 -1 -0 -0 -0 -0 -0 -1 -1 -2
-0 -0 -0 -0 -0 -0 -0 -0 -0 -0 -0 -0 -0 -0 -0 -0 -0 -0 -0 -0 -0 -0 -0 -0 -0 -0 -0 -0 -0 -0 -0 -0 -1 -1 -0 -0 -0 -0 -0 -0 -0 -0 -2 -2 -2 -3 -4 -5 -5 -59 -93 nan -55 -55 -35 -9 -9 -10 -11 -11 -11 -33 -32 nan nan nan -10 -12 -13 -13 -13 -12 -10 -10 -6 -3 -1 -1 -0 -0 -0 -0 -0 -0 -0 -2
-0 -0 -0 -0 -0 -0 -0 -0 -0 -0 -0 -0 -0 -0 -0 -0 -0 -0 -0 -0 -0 -0 -0 -0 -0 -0 -0 -0 -0 -0 -4 -8 -6 -6 -4 -1 -0 -0 -0 -0 -0 -1 -2 -3 -3 -2 -3 -4 -4 nan nan nan -67 -67 -7 -8 -8 -10 -11 -41 -41 -43 nan nan nan nan -10 -11 -12 -12 -12 -11 -7 -7 -4 -3 -1 -1 -1 -0 -0 -0 -0 -0 -0 -1
-0 -0 -0 -1 -1 -0 -0 -0 -0 -0 -0 -0 -0 -0 -0 -0 -0 -0 -6 -5 -5 -0 -0 -0 -0 -0 -0 -0 -0 -0 -0 -0 -0 -0 -0 -0 -0 -0 -0 -0 -0 -0 -1 -1 -1 -2 -3 -3 -3 -4 -5 -6 -5 -5 -5 -6 -6 -8 -9 nan nan nan nan nan nan nan nan nan -6 -6 -7 -7 -7 -7 -6 -4 -2 -2 -1 -1 -1 -1 -1 -1 -1 -1
-1 -0 -0 -0 -0 -0 -0 -0 -0 -0 -4 -10 -2 -2 -0 -0 -0 -0 -0 -0 -0 -0 -0 -0 -0 -0 -0 -0 -0 -0 -0 -0 -0 -0 -0 -0 -0 -0 -5 -2 -2 -0 -0 -0 -0 -1 -1 -2 -2 -3 -4 -4 -3 -3 -3 -4 -4 -5 -8 nan nan nan nan nan nan nan nan nan nan nan -4 -5 -6 -6 -7 -7 -5 -5 -3 -2 -2 -1 -1 -1 -1 -0
-1 -1 -0 -0 -0 -0 -0 -0 -0 -0 -4 -15 -13 -13 -8 -0 -0 -0 -0 -0 -0 -0 -0 -0 -0 -0 -0 -0 -0 -0 -0 -0 -0 -0 -0 -5 -4 -4 -6 -2 -2 -0 -0 -0 -0 -0 -0 -1 -1 -2 -4 -3 -1 -1 -2 -3 -3 -5 -7 -9 -9 nan nan nan nan nan nan nan nan nan -3 -2 -3 -3 -5 -9 -8 -8 -7 -3 -3 -2 -1 -0 -0 -0
-1 -3 -1 -0 -0 -0 -4 -1 -0 -0 -0 -4 -0 -0 -0 -0 -0 -0 -0 -0 -0 -0 -0 -0 -0 -0 -0 -0 -0 -0 -0 -0 -0 -0 -4 -15 -8 -8 -4 -5 -5 -6 -1 -0 -0 -0 -3 -4 -4 -3 -3 -2 -1 -1 -1 -3 -3 -6 -7 -8 -8 nan nan nan nan nan nan nan nan nan -2 -1 -1 -1 -2 -5 -9 -9 -8 -7 -7 -4 -1 -0 -0 -0
-3 -4 -3 -0 -0 -0 -0 -4 -8 -8 -2 -0 -0 -0 -0 -0 -14 -14 -0 -0 -0 -0 -0 -0 -0 -0 -0 -0 -0 -0 -0 -0 -0 -0 -1 -10 -4 -4 -0 -0 -0 -2 -2 -1 -1 -5 -0 -0 -0 -0 -0 -0 -0 -0 -1 -3 -3 -6 -8 nan nan nan nan nan nan nan nan nan nan nan nan -1 -0 -0 -1 -2 -5 -5 -9 -8 -8 -5 -1 -1 -1 -0
-0 -0 -5 -3 -3 -3 -0 -0 -4 -4 -0 -0 -0 -0 -0 -0 -5 -5 -14 -0 -0 -0 -0 -0 -0 -0 -0 -4 -0 -0 -0 -0 -1 -1 -0 -0 -0 -0 -0 -0 -0 -0 -0 -0 -0 -0 -0 -0 -0 -0 -0 -0 -0 -0 -1 -4 -4 nan nan nan nan nan nan nan nan nan nan nan nan nan nan -1 -0 -0 -0 -1 -3 -3 -6 -8 -8 -7 -3 -1 -1 -0
-4 -4 -0 -0 -0 -0 -4 -5 -6 -6 -1 -0 -0 -0 -0 -0 -0 -0 -2 -0 -0 -0 -0 -0 -0 -1 -0 -3 -10 -10 -3 -0 -0 -0 -0 -0 -2 -2 -0 -0 -0 -5 -3 -1 -1 -1 -2 -4 -4 -6 -4 -2 -1 -1 -5 nan nan nan nan nan nan nan nan nan nan nan -3 -2 -2 -2 -2 -1 -0 -0 -0 -0 -2 -2 -3 -8 -8 -9 -7 -3 -3 -1
-0 -0 -0 -0 -0 -0 -11 -5 -2 -2 -2 -0 -0 -0 -1 -0 -0 -0 -1 -0 -0 -0 -0 -3 -3 -2 -1 -0 -3 -3 -2 -0 -0 -0 -0 -0 -0 -0 -2 -2 -2 -1 -4 -21 -21 -35 nan nan nan nan nan -0 -2 -2 nan nan nan nan nan nan nan nan nan nan nan -3 -2 -2 -1 -1 -2 -1 -1 -1 -0 -0 -1 -1 -3 -6 -6 -10 -11 -9 -9 -5
-3 -0 -0 -0 -0 -0 -7 -3 -2 -2 -0 -0 -0 -0 -0 -0 -2 -2 -1 -1 -1 -2 -2 -1 -1 -2 -0 -0 -0 -0 -3 -0 -0 -0 -0 -0 -1 -1 -0 -0 -0 -0 -0 nan nan nan nan nan nan nan nan -3 -8 -8 nan nan nan nan nan nan nan nan nan nan nan -2 -2 -1 -1 -1 -2 -1 -1 -1 -1 -1 -1 -1 -2 -5 -5 -8 -11 nan nan nan
-3 -0 -3 -1 -1 -1 -2 -1 -1 -1 -0 -0 -0 -0 -0 -2 -1 -1 -2 -1 -1 -1 -0 -0 -0 -0 -0 -0 -0 -0 -8 -4 -1 -1 -2 -2 -2 -2 -7 -0 -0 -0 -0 -0 -0 nan nan nan nan nan nan nan nan nan nan nan nan nan nan nan nan nan nan nan nan -3 -2 -1 -1 -1 -1 -2 -2 -2 -1 -1 -2 -2 -2 -4 -4 -6 -9 nan nan nan
-2 -0 -2 -2 -2 -1 -2 -1 -0 -0 -7 -0 -0 -0 -3 -1 -4 -4 -2 -0 -0 -0 -0 -0 -0 -0 -0 -2 -0 -0 -15 -10 -6 -6 -6 -0 -2 -2 -23 -10 -10 -0 -0 -1 -1 -0 -2 nan nan nan nan nan nan nan nan nan nan nan nan nan nan nan nan nan nan -2 -1 -0 -0 -0 -1 -1 -2 -2 -2 -2 -2 -2 -3 -3 -3 -5 -6 -9 -9 nan
-0 -1 -1 -0 -0 -0 -1 -0 -0 -0 -0 -0 -0 -0 -1 -1 -2 -2 -0 -0 -0 -0 -0 -0 -0 -1 -0 -1 -0 -0 -2 -5 -0 -0 -0 -0 -0 -0 -3 -3 -3 -0 -0 -0 -0 -3 -2 -3 -3 -8 nan nan nan nan nan nan nan nan nan nan nan nan -3 -2 -2 -1 -0 -0 -0 -0 -0 -0 -1 -1 -1 -2 -2 -2 -3 -3 -3 -3 -4 -7 -7 nan
-1 -1 -0 -0 -0 -0 -0 -0 -0 -0 -0 -0 -2 -2 -3 -2 -0 -0 -0 -0 -0 -0 -1 -1 -1 -0 -0 -0 -0 -0 -0 -0 -0 -0 -0 -0 -0 -0 -0 -2 -2 -0 -0 -0 -0 -0 -0 -0 -0 -7 -7 -4 nan nan nan nan nan nan nan -3 -3 -2 -2 -1 -1 -0 -0 -0 -0 -0 -0 -0 -0 -0 -1 -1 -2 -2 -2 -3 -3 -3 -4 -5 -5 -7
-1 -0 -0 -0 -0 -0 -0 -0 -0 -0 -0 -3 -5 -5 -1 -0 -0 -0 -0 -0 -0 -0 -0 -0 -0 -0 -0 -0 -0 -0 -0 -0 -0 -0 -1 -0 -0 -0 -0 -0 -0 -0 -0 -0 -0 -0 -0 -0 -0 -2 -3 -3 -5 -5 nan nan nan nan -2 -1 -1 -1 -0 -0 -0 -0 -0 -0 -0 -0 -0 -0 -0 -0 -0 -1 -1 -1 -2 -3 -3 -3 -3 -4 -4 -7
-0 -0 -0 -0 -0 -0 -0 -0 -0 -0 -0 -3 -1 -1 -0 -0 -0 -0 -0 -0 -0 -0 -0 -0 -0 -0 -0 -0 -0 -0 -0 -0 -1 -1 -1 -0 -0 -0 -0 -0 -0 -2 -0 -0 -0 -0 -0 -0 -0 -0 -0 -4 -5 -5 nan nan nan nan -0 -0 -0 -0 -0 -0 -0 -0 -0 -0 -0 -0 -0 -0 -0 -0 -0 -0 -1 -1 -1 -2 -2 -2 -3 -3 -3 -5
-0 -0 -0 -0 -0 -0 -0 -1 -2 -2 -2 -0 -0 -0 -1 -1 -1 -1 -0 -0 -0 -1 -1 -2 -2 -2 -0 -0 -0 -0 -0 -0 -4 -4 -0 -0 -0 -0 -0 -3 -3 -0 -0 -0 -0 -2 -1 -0 -0 -0 -3 nan nan nan nan nan nan nan nan -0 -0 -0 -0 -0 -0 -0 -0 -0 -0 -0 -0 -0 -0 -0 -0 -0 -1 -1 -1 -1 -1 -1 -2 -2 -2 -4
-0 -2 -0 -0 -0 -0 -3 -5 -2 -2 -0 -0 -0 -0 -1 -1 -1 -1 -0 -0 -0 -1 -1 -2 -2 -1 -1 -0 -0 -0 -2 -2 -0 -0 -0 -1 -1 -1 -6 -7 -7 -2 -0 -0 -0 -3 -0 -0 -0 -4 nan nan nan nan nan nan nan nan nan -0 -0 -0 -0 -0 -0 -0 -0 -0 -0 -0 -0 -0 -0 -0 -0 -0 -0 -0 -1 -1 -1 -1 -1 -2 -2 -4
-1 -4 -0 -0 -0 -5 -6 -2 -0 -0 -0 -0 -2 -2 -4 -1 -1 -1 -1 -1 -1 -2 -1 -1 -1 -0 -1 -1 -3 -3 -3 -2 -0 -0 -1 -0 -0 -0 -0 -0 -0 -0 -0 -0 -0 -2 -3 -3 -3 -6 nan nan nan nan nan nan nan nan nan -0 -0 -0 -0 -0 -0 -0 -0 -0 -0 -0 -0 -0 -0 -0 -0 -0 -0 -0 -1 -1 -1 -1 -2 nan nan nan
-0 -0 -0 -0 -0 -0 -0 -0 -0 -0 -0 -0 -12 -12 -8 -1 -0 -0 -0 -1 -1 -2 -1 -1 -1 -1 -2 -0 -0 -0 -0 -0 -0 -0 -0 -0 -0 -0 -0 -0 -0 -0 -0 -0 -0 -4 -3 -2 -2 -2 nan nan nan nan nan nan nan nan -0 -0 -0 -0 -0 -0 -0 -0 -0 -0 -0 -0 -0 -0 -0 -0 -0 -0 nan nan nan nan nan nan nan nan nan nan
-0 -0 -0 -0 -0 -0 -0 -0 -0 -0 -0 -0 -7 -7 -6 -1 -0 -0 -1 -0 -0 -1 -1 -0 -0 -0 -0 -0 -0 -0 -0 -1 -1 -1 -0 -0 -0 -0 -0 -0 -0 -0 -0 -0 -0 -1 -0 -0 -0 -0 -0 nan nan nan nan -0 -0 -0 -0 -0 -0 -0 -0 -0 -0 -0 -0 -0 -0 -0 -0 -0 -0 -0 nan nan nan nan nan nan nan nan nan nan nan nan
-0 -0 -0 -0 -0 -0 -0 -0 -0 -0 -0 -0 -0 -0 -0 -0 -0 -0 -1 -1 -1 -2 -0 -0 -0 -0 -0 -0 -0 -0 -0 -1 -0 -0 -0 -0 -0 -0 -0 -0 -0 -0 -0 -0 -0 -0 -0 -0 -0 -0 -0 nan nan nan nan -0 -0 -0 -0 -0 -0 -0 -0 -0 -0 -0 -0 -0 -0 -0 -0 -1 nan nan nan nan nan nan nan nan nan nan nan nan nan nan
-0 -0 -0 -0 -0 -0 -0 -0 -0 -0 -0 -0 -0 -0 -0 -0 -0 -0 -1 -2 -2 -2 -0 -0 -0 -0 -0 -0 -0 -0 -0 -0 -0 -0 -0 -0 -0 -0 -0 -1 -1 -0 -0 -0 -0 -1 -2 -2 -2 -1 nan nan nan nan -0 -0 -0 -0 -0 -0 -0 -0 -0 -0 -0 -0 -0 -0 -1 -1 nan nan nan nan nan nan nan nan nan nan nan nan nan nan nan nan
-0 -0 -0 -0 -0 -0 -0 -0 -0 -0 -0 -0 -0 -0 -0 -0 -1 -1 -3 -2 -2 -0 -0 -0 -0 -0 -0 -0 -0 -0 -0 -0 -0 -0 -0 -0 -0 -0 -0 -0 -0 -2 -1 -1 -1 -0 -0 -12 -12 nan nan -0 -0 -0 -0 -0 -0 -0 -0 -0 -0 -0 -0 -9 -9 -8 -1 -8 -19 -19 nan nan nan nan nan nan nan nan nan nan nan nan nan nan nan nan
-0 -0 -0 -0 -0 -0 -0 -0 -0 -0 -0 -0 -0 -0 -0 -1 -2 -2 -1 -1 -1 -0 -0 -0 -0 -0 -0 -0 -0 -0 -0 -0 -0 -0 -1 -0 -0 -0 -0 -0 -0 -0 -0 -0 -0 -0 -0 nan nan nan -0 -0 -0 -0 -0 -0 -0 -0 -0 -0 -0 -0 -6 -18 -18 -12 -10 -17 nan nan nan nan nan nan nan nan nan nan nan nan nan nan nan nan nan nan
-0 -0 -0 -0 -0 -0 -0 -0 -1 -1 -3 -1 -0 -0 -0 -4 -3 -3 -1 -1 -1 -1 -0 -0 -0 -0 -0 -0 -0 -0 -0 -0 -0 -0 -3 -0 -0 -0 -0 -0 -0 -0 -0 -0 -0 -0 -0 -0 -0 nan nan nan nan nan nan -0 -0 -0 -0 -0 -0 -0 -0 -0 -0 -0 -0 -0 -0 -0 -0 -0 -0 -0 -0 -0 -0 -0 -0 -0 -0 nan nan nan nan nan
-0 -0 -0 -0 -0 -0 -0 -0 -3 -3 -2 -1 -3 -3 -9 -6 -0 -0 -0 -0 -0 -1 -1 -0 -0 -0 -0 -0 -0 -0 -0 -0 -0 -0 -0 -0 -0 -0 -0 -0 -0 -0 -0 -0 -0 -0 -0 -0 -0 -0 -3 nan nan nan nan nan nan -0 -0 -0 -0 -0 -0 -0 -0 -0 -0 -0 -0 -0 -0 -0 -0 -0 -0 -0 -0 -0 -0 -0 -0 -0 nan nan nan nan
-0 -0 -0 -0 -0 -0 -0 -1 -3 -3 -2 -2 -3 -3 -5 -4 -1 -1 -0 -0 -0 -2 -1 -1 -1 -0 -0 -0 -0 -0 -0 -0 -0 -0 -0 -0 -0 -0 -0 -0 -0 -0 -0 -0 -0 -0 -0 -0 -0 -0 -0 -3 nan nan nan nan nan nan -0 -0 -0 -0 -0 nan nan nan nan nan nan nan -0 -0 -0 -0 -0 -0 -0 -0 -0 -0 -0 -0 -0 -1 -1 nan
-0 -0 -0 -0 -0 -0 -0 -1 -3 -3 -2 -3 -6 -6 -5 -3 -2 -2 -3 -2 -2 -3 -3 -3 -3 -1 -0 -0 -0 -0 -0 -0 -0 -0 -0 -0 -0 -0 -0 -0 -0 -0 -0 -0 -0 -0 -0 -0 -0 -0 -0 -0 nan nan nan nan nan nan -0 -0 -0 -0 nan nan nan nan nan nan nan nan nan nan -0 -0 -0 -0 -0 -0 -0 -0 -0 -0 -0 -0 -0 -0
-0 -0 -0 -0 -0 -0 -0 -0 -1 -1 -0 -2 -11 -11 -9 -6 -5 -5 -5 -6 -6 -4 -4 -4 -4 -3 -3 -0 -0 -0 -0 -0 -0 -0 -0 -0 -0 -0 -0 -0 -0 -0 -0 -0 -0 -0 -0 -0 -0 -0 -0 -0 nan nan nan nan nan nan nan -0 -0 -0 nan nan nan nan nan nan nan nan nan -0 -0 -0 -0 -0 -0 -0 -0 -0 -0 -0 -0 -0 -0 -0
-0 -0 -0 -0 -0 -0 -0 -1 -0 -0 -0 -1 -3 -3 -7 -5 -5 -5 -8 -10 -10 -9 -6 -2 -2 -4 -1 -3 -3 -3 -0 -0 -0 -0 -0 -0 -0 -0 nan -0 -0 -0 -0 -0 -0 -0 -0 -0 -0 -0 -0 -0 nan nan nan nan nan nan nan nan nan nan nan nan nan nan nan nan nan nan -0 -0 -0 -0 -0 -0 -0 -0 -0 -0 -0 -0 -0 -0 -0 -0
-0 -0 -0 -0 -0 -0 -0 -0 -0 -0 -0 -1 -4 -4 -3 -1 -3 -3 -6 -9 -9 -10 -8 -6 -6 -5 -0 -0 -2 -2 -2 -1 -1 -1 -1 -0 -0 -0 -0 -0 -0 -0 -0 -0 -0 -0 -0 -0 -0 -0 -0 -0 nan nan nan nan nan nan nan nan nan nan nan nan nan nan nan -0 -0 -0 -0 -0 -0 -0 -0 -0 -0 -0 -0 -0 -0 -0 -0 -0 -0 -0
-0 -0 -0 -0 -0 -0 -0 -0 -0 -0 -1 -2 -4 -4 -2 -1 -2 -2 -4 -5 -5 -6 -7 -5 -5 -4 -4 -2 -0 -0 -0 -1 -2 -2 -1 -0 -0 -0 -0 -0 -0 -0 -0 -0 -0 -0 -0 -0 -0 -0 -0 nan nan nan nan nan nan nan nan nan nan nan nan nan nan -0 -0 -0 -0 -0 -0 -0 -0 -0 -0 -0 -0 -0 -0 -0 -0 -0 -0 -0 -0 -0
-0 -0 -0 -0 -0 -0 -0 -0 -1 -1 -0 -0 -0 -0 -1 -2 -3 -3 -3 -2 -2 -1 -0 -0 -0 -1 -0 -0 -0 -0 -0 -2 -0 -0 -0 -0 -0 -0 -0 -0 -0 -0 -0 -0 -0 -0 -0 -0 -0 -0 -0 nan nan nan nan nan nan nan nan nan nan nan nan nan nan nan -0 -0 -0 -0 -0 -0 -0 -0 -0 -0 -0 -0 -0 -0 -0 -0 -0 -0 -0 -0
-0 -0 -0 -0 -0 -0 -0 -0 -0 -0 -0 -4 -2 -2 -1 -4 -6 -6 -5 -4 -4 -2 -0 -0 -0 -0 -0 -0 -0 -0 -2 -3 -0 -0 -0 -0 -0 -0 -0 -0 -0 -0 -0 -0 -0 -0 -0 -0 -0 -0 -0 nan nan nan nan nan nan -0 -0 nan nan nan nan nan nan nan nan nan -0 -0 -0 -0 -0 -0 -0 -0 nan nan -0 -0 -0 -0 -0 -0 -0 -1
-0 -0 -0 -0 -0 -0 -0 -0 -0 -0 -0 -3 -1 -1 -2 -6 -6 -6 -1 -1 -1 -2 -0 -0 -0 -0 -0 -0 -0 -0 -4 -2 -0 -0 -0 -0 -0 -0 -0 -0 -0 -0 -0 -0 -0 -0 -0 -0 -0 -0 -0 nan nan nan nan nan nan -0 nan nan nan nan nan nan nan nan nan nan nan nan -0 nan nan nan nan nan nan nan -0 -0 -0 -0 -0 -0 -0 -1
-0 -0 -0 -0 -0 -1 -1 -0 -0 -0 -1 -2 -1 -1 -2 -3 -2 -2 -0 -0 -0 -0 -0 -0 -0 -0 -0 -0 -0 -0 -2 -0 -0 -0 -0 -0 -0 -0 -0 -0 -0 -0 -0 -0 -0 -0 -0 -0 -0 -0 nan nan nan nan nan nan nan nan nan nan nan nan nan nan nan nan nan nan nan nan nan nan nan nan nan nan nan nan nan -0 -0 -0 -0 nan nan -0
-0 -0 -1 -1 -1 -0 -0 -0 -1 -1 -1 -1 -1 -1 -1 -1 -1 -1 -1 -1 -1 -0 -0 -0 -0 -0 -0 -0 -0 -0 -0 -0 -0 -0 -0 -0 -0 -0 -0 -0 -0 -0 -0 -0 -0 -0 -0 -0 -0 nan nan nan nan nan nan nan nan nan nan nan nan nan nan nan nan nan nan nan nan nan nan nan nan nan nan nan nan nan nan nan nan nan nan nan nan nan
-1 -1 -0 -0 -0 -0 -0 -0 -1 -1 -0 -0 -0 -0 -1 -1 -1 -1 -1 -1 -1 -0 -0 -0 -0 -0 -0 -0 -0 -0 -0 -0 -0 -0 -0 -0 -0 -0 -0 -0 -0 -0 -0 -0 -0 -0 nan nan nan nan nan nan nan nan nan nan nan nan -0 nan nan nan nan nan nan nan nan nan nan nan nan nan nan nan nan nan nan nan nan nan nan nan nan nan nan nan
-1 -0 -0 -0 -0 -0 -0 -0 -1 -1 -2 -1 -0 -0 -2 -1 -1 -1 -0 -0 -0 -0 -0 -0 -0 -0 -0 -0 -0 -0 -0 -0 -0 -0 -0 -0 -0 -0 -0 -0 -0 -0 -0 -0 -0 -0 -0 nan nan -0 nan nan nan nan nan nan nan nan nan nan nan nan nan nan nan nan nan nan nan nan nan nan nan nan nan nan nan nan nan nan nan nan nan nan nan nan
-1 -1 -0 -0 -0 -0 -0 -0 -0 -0 -2 -0 -1 -1 -3 -2 -0 -0 -0 -0 -0 -0 -0 -0 -0 -0 -0 -0 -0 -0 -0 -0 nan nan nan -0 -0 -0 -0 -0 -0 -0 -0 -0 -0 -0 -0 -0 -0 -0 nan nan nan nan nan nan nan nan nan nan nan nan nan nan nan nan nan nan nan nan nan nan nan nan nan nan nan nan nan nan nan nan nan nan nan nan
-0 -0 -0 -0 -0 -1 -0 -0 -0 -0 -0 -1 -2 -2 -3 -2 -0 -0 -0 -0 -0 -0 -0 -0 -0 -0 -0 -0 -0 -0 -0 -0 -0 -0 -0 -0 -0 -0 -0 -0 -0 -0 -0 -0 -0 -0 -0 -0 -0 nan nan nan nan nan nan nan nan nan nan nan nan nan nan nan nan nan nan nan nan nan nan nan nan nan nan nan nan nan nan nan nan nan nan nan nan nan
-0 -1 -0 -0 -0 -0 -0 -1 -1 -1 -1 -1 -2 -2 -2 -0 -0 -0 -0 -0 -0 -0 -0 -0 -0 -0 -0 -0 -0 -0 -0 -0 -0 -0 -0 -0 -0 -0 nan nan nan nan -0 -0 -0 -0 -0 -0 -0 -0 nan nan nan nan nan nan nan nan nan nan nan nan nan nan nan nan nan nan nan nan nan nan nan nan nan nan nan nan nan nan nan nan nan nan nan nan
-0 -1 -0 -1 -1 -1 -0 -1 -1 -1 -0 -0 -1 -1 -1 -0 -0 -0 -0 -0 -0 -0 -0 -0 -0 -0 -0 -0 -0 -0 -0 -0 -0 -0 -0 -0 -0 -0 nan nan nan nan nan nan nan nan -0 -0 -0 -0 -0 -0 nan nan nan nan nan nan nan nan nan nan nan nan nan nan nan nan nan nan nan nan nan nan nan nan nan nan nan nan nan nan nan nan nan nan
-0 -0 -0 -1 -1 -2 -1 -0 -0 -0 -0 -0 -1 -1 -1 -0 -1 -1 -1 -0 -0 -0 -0 -0 -0 -0 -0 -0 -0 -0 -0 -0 -0 -0 -0 -0 -0 -0 -0 nan nan nan nan nan nan nan nan nan nan -0 -0 -0 -0 -0 nan nan nan nan nan nan nan nan nan nan nan nan nan nan nan nan nan nan nan nan nan nan nan nan nan nan nan nan nan nan nan nan
Wind_Speed
12 12 13 16 17 17 16 18 19 19 17 15 15 14 14 15 15 16 18 18 18 18 17 16 16 17 18 18 19 20 21 23 24 24 25 24 24 24 24 24 24 24 24 25 25 25 24 23 22 21 21 21 21 21 22 23 23 24 25 25 25 25 25 26 27 28 29 29 30 30 30 30 30 30 30 30 30 31 30 30 30 31 32 35 37 37
12 13 13 16 18 18 16 18 19 18 17 17 16 16 16 17 16 15 15 16 17 17 15 15 16 17 19 19 20 21 22 23 24 25 25 25 25 25 25 25 25 25 25 25 25 25 24 23 22 21 21 21 21 21 21 21 22 22 22 22 22 23 23 24 25 26 27 28 29 29 29 30 30 29 29 29 29 29 29 29 30 30 31 34 36 38
12 12 12 14 16 16 15 16 17 17 18 18 17 17 19 19 17 15 13 14 14 14 14 14 15 16 18 18 20 21 23 24 25 25 25 25 25 25 25 25 25 25 25 25 24 24 24 23 22 22 21 21 22 22 22 22 21 20 20 19 20 20 21 22 23 24 25 26 27 27 28 28 28 28 28 27 28 28 28 29 29 30 30 33 35 37
12 12 12 11 13 14 14 15 15 15 15 16 17 19 20 18 15 14 13 14 14 14 14 15 16 16 16 16 18 20 23 24 24 25 25 25 25 25 25 26 26 25 24 24 24 24 24 24 24 23 23 23 23 23 23 22 21 19 18 18 18 18 19 20 20 21 23 24 25 25 26 26 26 26 26 27 27 28 28 29 29 30 30 31 33 36
12 12 12 11 11 12 13 14 14 14 14 14 15 16 17 15 13 13 13 14 15 15 14 15 15 16 15 14 16 19 22 24 24 25 25 25 25 25 25 25 25 25 24 24 24 24 25 25 25 25 24 25 25 24 23 22 20 19 17 17 17 17 18 18 19 19 20 21 22 23 24 25 25 25 26 26 27 28 29 29 29 29 29 29 31 33
12 11 11 11 11 11 11 12 12 12 12 12 13 14 14 13 13 13 13 14 14 14 13 13 14 15 15 15 17 19 22 23 24 24 24 24 24 24 25 25 25 25 25 25 25 25 25 25 26 26 26 26 26 24 23 21 19 17 16 16 16 17 17 17 18 18 19 20 21 21 22 23 24 25 26 27 28 29 29 29 29 29 28 28 29 31
11 11 11 11 10 10 10 10 11 11 11 11 11 11 12 12 13 13 14 14 14 13 13 13 14 15 15 16 18 19 20 21 22 22 23 23 24 24 25 25 26 26 26 27 27 26 26 26 26 27 27 27 26 24 22 20 18 16 15 15 15 16 16 17 17 18 18 19 19 20 21 22 23 24 25 27 28 29 29 30 29 29 27 27 28 29
12 11 11 11 10 10 9 10 10 11 11 11 11 11 12 12 12 13 15 15 14 14 13 13 13 13 14 15 16 16 16 16 17 17 19 20 21 22 23 24 25 26 26 27 27 27 27 27 27 27 27 27 25 23 21 19 17 15 15 15 15 15 16 16 17 18 18 19 19 20 21 22 23 24 25 26 27 28 29 29 29 28 27 26 27 28
12 12 11 11 11 11 10 10 10 11 11 11 11 11 12 13 13 13 13 13 13 13 12 12 13 13 13 13 14 14 14 14 14 14 15 15 16 18 19 20 22 24 26 27 27 27 27 27 27 27 27 26 24 22 20 17 16 14 14 14 14 15 15 16 17 18 19 19 20 21 21 22 23 23 25 25 26 27 28 28 28 27 27 27 27 28
11 11 10 10 10 10 10 11 11 11 12 11 11 11 11 13 13 13 13 12 12 11 11 12 12 13 13 12 12 13 14 14 16 17 18 17 18 18 18 18 19 21 24 26 27 27 27 26 26 26 25 24 22 20 18 16 14 14 13 14 14 15 15 16 17 18 19 20 21 21 22 22 23 23 24 25 25 26 27 27 27 27 27 27 28 28
9 9 10 10 10 9 10 10 10 11 12 11 11 11 10 11 12 12 14 13 12 11 11 11 12 12 12 12 12 12 12 13 14 15 17 18 19 19 18 19 19 21 24 25 25 26 25 24 24 23 22 20 18 17 15 13 13 13 13 14 14 15 16 17 18 19 20 21 21 22 23 23 23 23 23 24 25 25 26 26 27 27 27 28 28 29
9 9 9 9 9 9 10 10 10 10 10 10 10 10 10 10 10 11 13 13 13 13 12 12 11 11 12 12 11 11 11 11 11 12 12 13 14 14 15 16 17 19 20 21 21 21 21 20 19 18 16 15 14 13 12 12 12 13 13 14 16 17 18 18 19 20 21 21 22 22 23 24 24 24 24 24 24 25 25 26 27 27 28 28 29 29
9 9 9 9 9 9 10 10 9 9 8 9 10 11 11 10 10 10 11 12 13 13 13 12 11 11 11 11 11 10 11 11 11 11 10 11 11 11 11 11 12 12 13 13 13 13 14 15 14 14 13 13 13 13 12 12 13 14 15 17 18 19 19 20 20 21 21 22 22 23 23 24 24 24 24 24 24 24 25 26 26 27 28 28 29 30
10 9 9 10 10 10 10 10 9 9 9 9 10 11 11 11 11 11 11 12 12 12 12 12 12 11 10 10 10 10 10 11 10 10 11 11 10 10 10 10 9 9 8 8 8 9 11 12 12 12 13 13 13 13 14 14 15 16 18 19 20 20 21 21 21 22 22 22 23 23 23 24 24 24 25 24 24 24 25 25 26 27 27 28 29 29
10 10 11 11 11 10 9 9 9 9 9 10 10 11 11 12 12 11 11 12 12 12 12 12 12 11 10 9 9 10 10 10 10 10 11 10 9 9 8 8 7 7 7 7 9 10 13 12 12 11 12 14 15 15 15 16 17 19 19 20 21 22 22 22 22 22 23 23 23 23 23 24 24 24 24 25 25 25 25 25 25 26 27 28 28 29
10 10 11 12 11 10 8 8 8 9 10 10 11 11 12 12 11 11 11 12 11 11 11 11 11 10 8 8 8 8 9 8 8 8 9 8 7 7 7 8 9 9 9 10 11 12 13 12 12 12 12 14 15 16 17 17 19 20 21 21 22 23 23 23 23 23 24 24 24 24 24 24 24 24 24 24 24 24 25 25 25 26 26 27 28 28
10 11 11 11 11 10 8 8 9 9 10 10 11 11 11 11 11 11 11 10 10 9 9 9 10 9 6 5 5 6 6 6 6 7 8 9 9 9 8 9 11 12 12 12 12 12 12 12 11 11 11 13 15 16 17 18 19 21 21 22 23 23 23 24 24 24 24 24 25 25 25 25 25 25 25 24 24 24 24 25 25 25 26 27 28 28
11 11 11 10 9 9 8 9 9 9 10 10 11 11 11 11 12 11 11 10 10 10 9 8 8 7 6 6 5 6 7 8 9 9 10 11 11 11 10 10 11 12 13 13 12 12 12 12 12 11 11 14 16 17 19 20 20 21 22 23 23 24 24 24 24 24 25 25 25 26 26 26 26 25 25 25 25 24 25 25 25 25 26 27 27 28
11 10 9 9 9 9 9 10 10 10 10 10 11 11 12 12 11 11 10 10 10 9 8 8 8 7 8 8 9 9 9 10 10 11 12 12 12 11 10 10 11 12 12 12 12 12 11 11 12 13 15 16 18 19 20 21 21 22 23 23 23 24 24 24 24 24 25 25 26 26 27 27 26 26 25 25 25 25 25 25 25 25 26 26 27 28
11 10 9 9 10 10 11 10 10 11 11 12 12 11 11 11 11 10 9 8 8 8 8 9 10 10 9 10 11 11 10 10 11 11 11 12 12 11 10 10 11 12 12 12 11 11 11 11 11 12 13 15 17 19 20 21 22 22 23 23 23 23 23 24 24 24 25 26 26 27 27 27 27 27 26 26 26 25 25 25 25 25 26 26 27 27
12 11 10 11 11 11 10 10 11 13 14 14 13 12 11 10 10 9 7 7 8 9 9 9 10 10 9 10 11 11 11 11 10 10 9 10 10 10 9 9 10 11 12 12 11 10 9 10 9 9 10 14 16 18 19 20 21 22 22 23 23 23 24 24 25 25 26 26 27 27 27 27 27 27 27 26 26 26 26 26 26 26 26 26 27 27
12 13 13 14 13 12 11 12 14 16 17 16 14 12 10 10 10 10 10 10 10 10 10 10 10 11 11 11 12 12 11 11 10 9 7 9 9 9 7 7 8 9 10 10 9 8 8 8 8 8 10 13 16 17 18 19 20 21 22 23 23 24 25 25 26 26 27 27 27 27 27 27 27 27 27 27 26 26 26 26 26 26 26 27 27 28
13 13 14 14 13 13 13 14 14 14 14 13 12 11 9 10 11 11 11 10 9 9 10 10 11 11 12 12 12 12 11 10 8 7 6 8 8 7 5 6 7 8 8 7 7 6 6 7 7 8 9 13 14 16 17 19 20 21 22 23 24 25 26 27 27 27 27 27 27 27 27 27 27 27 27 27 27 27 27 27 28 28 28 28 28 28
14 14 13 13 12 12 12 12 11 11 10 11 11 10 10 10 11 11 10 9 9 9 9 10 11 11 11 12 11 11 8 6 6 6 5 7 9 9 7 7 8 10 10 9 9 9 8 7 7 6 6 10 12 14 16 18 20 22 23 24 25 26 27 28 28 27 27 27 26 26 26 27 27 27 28 28 28 28 29 29 29 29 28 28 27 27
14 14 13 13 14 16 16 15 15 15 14 13 12 11 11 11 12 11 10 9 8 9 9 10 11 11 10 10 10 9 8 7 7 6 5 6 8 10 9 8 9 11 12 11 10 9 8 8 7 5 5 7 10 13 16 18 20 22 23 24 25 27 28 28 28 27 26 26 26 26 27 27 27 28 28 28 27 27 28 27 26 26 25 24 23 22
19 19 20 22 25 27 29 28 26 25 24 20 16 12 11 11 11 11 9 8 8 8 9 10 11 11 10 9 9 9 8 7 6 6 5 5 7 9 9 8 9 10 11 10 9 8 8 8 7 6 5 6 8 12 15 17 19 21 22 24 25 27 28 28 27 27 26 26 26 26 26 26 25 23 22 21 19 18 18 17 17 17 16 17 18 20
27 28 30 31 31 31 31 30 29 30 30 27 23 19 15 13 11 11 10 9 8 9 10 11 11 11 11 10 9 9 8 6 5 5 5 6 8 9 9 8 8 9 10 9 8 8 8 8 8 7 6 5 6 9 12 15 17 19 21 23 25 26 27 27 27 26 25 25 24 23 21 20 16 13 11 10 10 10 11 13 14 15 16 16 16 17
27 28 28 28 28 27 27 27 28 28 28 28 29 27 21 14 11 10 10 9 9 10 11 11 11 11 10 10 9 9 8 7 6 6 6 6 7 8 8 7 7 7 7 7 7 7 7 7 7 6 5 5 5 6 9 12 15 17 19 22 24 25 26 25 25 24 22 21 18 15 12 9 9 10 12 13 15 18 19 21 22 21 19 16 13 12
24 25 25 25 25 25 25 25 25 25 26 27 27 25 20 12 10 9 10 9 10 11 11 11 11 11 10 10 10 10 9 7 6 6 6 6 6 7 6 5 5 5 6 6 6 6 6 5 5 4 4 4 4 5 7 9 11 13 16 19 21 21 20 20 19 17 15 12 9 8 10 12 15 17 19 20 22 24 25 25 24 20 15 13 11 11
19 20 20 21 21 21 21 20 20 21 23 25 25 23 17 11 8 8 9 9 10 11 11 11 11 11 10 11 11 10 8 6 5 4 4 5 6 6 6 7 7 7 6 6 6 7 6 4 2 1 2 3 4 4 4 5 7 8 11 15 15 14 11 10 9 8 7 9 11 13 16 18 20 21 22 24 25 26 26 25 21 16 11 11 11 10
16 16 15 16 16 15 15 14 15 16 18 20 20 18 13 9 8 7 8 9 9 10 10 11 11 10 10 10 9 8 6 5 4 4 4 4 5 6 7 8 8 7 6 5 5 5 5 2 0 0 1 2 3 3 3 4 5 6 8 10 10 7 3 2 4 7 11 14 16 18 20 21 22 23 24 25 26 26 25 23 19 15 11 11 11 11
15 14 13 13 13 12 12 12 12 12 13 13 12 10 9 8 8 8 8 8 9 9 10 10 11 11 10 10 10 9 7 6 6 6 5 4 5 6 7 7 7 7 5 5 5 6 6 4 2 1 1 2 2 3 3 4 5 6 7 9 8 5 6 7 8 10 12 15 17 19 20 21 23 24 25 25 26 26 25 23 19 15 12 12 12 12
14 12 12 12 12 11 11 11 11 10 10 9 8 8 8 8 8 9 8 8 8 9 9 10 11 11 11 11 11 10 8 7 7 7 6 5 5 5 6 6 7 7 6 6 6 6 6 6 4 3 2 2 2 2 3 4 4 5 7 8 7 5 5 6 7 8 10 12 14 16 18 20 22 23 24 24 25 24 24 23 20 17 14 13 12 12
13 13 13 12 12 11 11 11 11 10 9 8 8 7 7 8 8 8 8 8 8 8 9 9 10 11 11 11 11 10 9 8 7 7 6 5 5 5 6 7 7 7 6 6 6 6 6 7 6 5 4 2 1 1 2 3 3 4 5 6 6 5 5 4 5 6 7 8 8 10 12 14 17 19 20 21 22 22 23 22 21 19 17 14 13 12
13 13 13 12 12 11 12 11 10 9 9 8 8 7 7 8 8 8 8 8 8 8 9 9 9 10 11 11 11 10 9 8 7 7 7 6 6 6 6 6 6 6 6 6 6 6 5 7 7 7 5 3 2 1 1 2 2 3 4 5 5 4 4 4 4 5 6 6 6 6 7 8 9 11 13 16 19 20 21 22 21 20 19 17 15 13
12 12 12 12 11 11 12 11 11 10 9 8 8 7 7 8 8 8 8 8 8 9 9 9 9 9 10 11 11 11 11 9 8 8 8 8 7 6 5 5 6 6 7 7 7 7 6 7 7 7 6 5 3 1 1 1 2 2 3 4 4 4 4 4 4 4 5 5 5 5 6 6 7 8 10 15 18 20 21 21 21 21 20 18 17 14
12 12 12 11 11 11 12 11 10 9 9 9 9 9 9 9 9 9 9 9 9 10 11 11 11 11 12 11 11 11 11 10 10 10 10 9 8 6 5 5 6 7 7 8 8 7 7 7 7 7 6 5 3 1 1 1 1 1 2 3 3 4 4 4 5 5 5 6 6 6 6 6 7 8 11 16 18 19 20 21 21 21 21 20 18 17
12 12 12 11 11 11 11 11 10 10 10 10 10 10 10 10 10 11 10 10 10 11 11 10 10 12 14 15 14 13 13 12 13 13 12 10 7 6 6 6 7 8 8 8 8 8 8 8 7 6 5 3 2 1 1 1 0 0 1 2 3 3 4 4 4 5 5 6 7 8 8 7 7 8 10 12 12 12 13 13 15 17 19 19 18 18
12 12 12 12 11 11 11 11 11 11 11 11 11 11 11 11 12 12 11 10 10 11 11 11 10 11 12 13 14 15 14 14 14 13 11 8 6 5 6 7 8 8 8 8 8 8 8 8 7 6 5 2 1 1 1 2 1 1 1 1 2 4 4 4 4 4 5 6 7 8 7 6 6 7 8 8 9 9 9 10 11 12 13 13 14 16
12 12 12 12 12 11 11 11 11 12 12 12 13 12 11 11 10 10 10 10 10 10 11 11 10 10 10 10 11 12 13 12 11 10 8 6 5 5 6 7 7 8 8 8 8 9 9 9 8 8 6 3 2 2 2 2 2 3 3 2 1 2 3 3 3 3 4 5 6 6 6 5 6 6 7 7 7 7 7 7 8 9 9 9 9 11
12 12 12 12 11 11 12 12 12 12 13 12 12 11 10 9 9 9 9 9 9 9 9 9 9 8 8 9 9 10 11 10 10 8 6 5 6 6 6 6 7 7 8 8 8 9 9 9 9 8 7 4 3 3 3 3 4 4 4 3 2 2 2 3 3 3 4 5 5 6 6 6 7 7 7 7 6 6 6 7 7 8 7 7 7 8
13 13 12 12 11 11 11 12 13 13 13 12 11 10 9 9 9 9 9 9 9 8 8 7 8 8 8 8 8 8 8 7 6 6 5 6 6 7 7 6 6 7 7 8 8 9 9 9 9 8 6 4 4 4 3 4 4 3 2 3 4 4 4 3 3 3 4 5 5 6 7 7 7 7 7 7 6 6 7 7 8 8 7 6 5 5
12 12 12 12 12 12 13 13 13 12 12 11 10 10 9 9 9 10 10 10 9 9 8 8 8 8 8 8 8 7 5 4 4 4 4 5 6 7 7 6 6 6 6 6 7 7 7 7 6 5 4 4 4 4 4 4 3 3 3 4 5 5 3 2 2 2 4 5 5 6 6 6 6 6 7 7 6 6 7 8 9 9 8 6 5 5
12 12 12 12 12 12 12 12 11 11 11 11 11 10 9 9 10 10 10 9 9 9 8 7 7 8 8 8 7 6 3 2 2 2 3 5 5 6 6 6 6 5 5 5 4 4 3 3 2 2 1 2 3 4 5 4 4 3 3 3 3 4 4 3 3 3 5 6 6 6 6 6 7 7 7 6 6 6 7 7 7 7 7 6 6 6
12 12 12 12 12 12 12 12 12 12 12 11 11 10 10 10 10 10 9 9 9 9 8 7 7 7 7 7 6 5 3 2 2 2 3 4 5 6 6 5 5 4 4 3 3 2 2 1 1 1 0 1 2 4 4 5 5 4 3 3 4 4 4 4 4 5 6 6 6 6 6 7 7 8 8 7 6 6 6 6 7 6 6 6 6 6
11 12 12 12 12 12 13 13 13 12 12 11 11 10 10 10 9 9 9 9 9 8 8 7 7 6 7 7 6 4 3 2 2 2 2 3 3 4 4 4 4 4 3 3 3 3 2 2 1 1 1 2 3 3 4 5 5 5 5 5 5 5 5 5 5 5 6 6 6 6 6 7 8 8 7 7 7 6 6 6 6 6 5 5 5 6
12 13 13 12 12 12 12 13 13 12 12 11 11 10 10 9 9 9 9 9 8 8 7 7 7 7 7 6 5 3 3 3 3 3 3 3 3 3 4 4 4 4 3 3 3 4 4 4 3 2 2 3 3 4 4 4 5 5 5 5 5 5 5 5 4 5 5 6 6 6 6 7 8 8 8 7 7 6 5 5 5 5 4 4 5 5
13 13 13 13 13 13 13 13 13 12 12 11 10 10 9 10 10 10 9 8 8 7 7 7 7 6 6 4 3 3 2 3 3 3 3 3 4 4 4 3 3 3 3 3 4 5 6 7 7 6 4 3 3 4 4 4 4 5 5 5 6 6 6 5 4 4 5 6 6 5 6 7 7 8 8 8 7 6 5 5 5 4 4 3 4 5
13 13 13 13 13 13 13 13 13 13 12 11 10 10 9 10 11 11 8 8 7 7 7 7 7 6 5 3 2 2 2 3 3 3 3 3 3 4 4 4 3 3 2 2 3 4 6 8 9 9 8 6 4 4 5 5 4 4 4 5 6 6 6 5 5 5 5 5 6 6 5 5 6 7 8 8 7 6 5 5 4 4 4 3 3 4
12 12 13 13 13 13 13 13 13 13 12 11 11 10 10 9 9 8 7 7 7 6 6 6 6 5 3 2 2 2 2 3 3 3 3 3 4 4 4 4 3 3 2 1 2 2 4 5 8 10 12 11 8 5 4 5 5 5 5 5 5 6 6 5 5 5 5 6 6 6 6 5 5 5 7 8 8 7 6 5 4 4 3 3 3 3
13 12 12 13 13 13 13 13 13 12 11 11 11 11 10 9 8 7 7 7 6 6 6 6 5 4 3 2 2 2 3 3 3 3 4 4 4 4 4 4 3 3 2 2 1 1 2 3 4 6 10 12 12 9 4 4 4 5 5 5 4 5 5 5 5 5 6 6 6 6 6 6 5 5 6 7 7 7 6 5 4 3 2 2 3 3
Wind_Direction
296 298 299 300 299 298 295 297 297 297 297 298 298 299 299 299 297 296 297 295 294 292 290 289 289 289 291 293 295 297 298 298 298 297 296 295 294 293 293 292 291 290 290 290 290 289 289 287 284 281 278 275 272 268 265 262 261 259 258 257 257 257 257 258 258 258 258 257 256 255 253 252 252 251 251 251 251 251 251 251 249 247 244 243 241 239
295 295 295 296 295 294 292 295 296 296 297 298 298 298 299 298 296 295 293 291 289 288 288 289 290 292 293 295 295 296 295 294 293 293 292 292 291 290 290 289 288 288 288 288 289 289 289 287 285 282 279 277 275 272 269 266 263 260 258 257 256 256 257 257 258 258 258 257 256 254 252 251 250 250 249 249 249 249 249 250 249 247 245 243 242 240
298 295 294 294 293 292 292 295 296 296 296 297 297 297 298 297 296 294 292 291 290 289 289 291 292 293 294 293 292 291 290 289 288 288 288 288 289 289 289 289 288 288 288 289 290 290 290 288 286 283 281 280 278 276 274 271 268 264 261 259 258 258 258 259 260 260 259 258 256 254 252 250 249 248 248 247 247 247 248 248 248 248 246 244 242 241
296 295 295 295 293 292 292 295 296 296 296 295 295 295 295 294 293 292 292 292 292 292 292 292 292 291 290 289 287 287 286 285 284 284 285 286 287 288 289 289 288 288 288 289 289 289 289 287 285 283 282 281 281 279 277 275 272 268 265 263 262 262 262 263 263 262 261 258 256 253 250 248 247 246 245 245 245 245 246 247 247 248 247 245 243 242
293 293 295 295 293 292 293 294 294 294 294 293 293 293 293 292 292 292 293 293 293 293 292 291 290 288 286 285 284 283 282 282 282 282 282 283 284 285 286 286 286 285 286 286 286 285 285 284 283 283 283 283 282 281 279 277 274 271 267 266 266 266 266 267 266 265 263 260 256 253 249 247 245 244 243 244 244 245 245 245 246 247 247 246 244 242
292 292 293 292 292 292 293 293 293 293 293 292 292 293 294 294 294 294 294 294 294 293 292 290 288 286 284 283 282 282 282 282 282 282 282 282 282 282 282 282 282 282 282 282 282 281 281 281 282 282 283 283 283 282 280 278 274 271 268 267 268 268 269 270 270 269 267 264 259 255 250 246 244 243 242 243 244 244 244 244 245 245 246 247 245 243
290 289 289 288 288 289 290 290 292 293 295 295 296 296 295 294 294 293 293 294 293 293 291 288 286 284 283 282 283 283 284 284 285 284 283 282 281 280 279 279 279 279 280 280 280 279 279 279 280 280 281 282 282 282 281 278 274 271 268 268 269 270 272 273 273 273 272 269 265 259 253 249 246 243 242 243 243 243 243 243 243 244 245 246 246 245
287 287 286 287 288 289 289 290 293 296 298 300 301 300 299 296 294 293 292 291 290 289 288 286 285 284 283 285 287 287 288 287 287 286 284 282 281 279 278 277 277 278 278 278 278 277 277 277 277 278 279 281 281 281 280 277 274 270 268 268 269 271 272 274 275 276 275 273 270 265 259 254 249 245 243 242 242 242 242 241 241 241 242 244 245 245
284 286 287 289 291 294 295 295 297 300 302 301 301 300 300 298 295 293 291 289 287 287 287 287 287 287 287 288 289 289 288 286 285 284 283 282 280 279 278 277 277 277 277 276 276 275 275 275 275 276 278 280 281 281 280 277 274 271 269 269 270 271 273 274 275 276 276 275 273 269 265 259 254 249 245 243 241 240 240 240 239 239 240 241 243 244
284 287 291 293 295 297 299 299 300 301 301 297 295 293 293 294 294 294 292 290 289 288 287 288 289 289 289 289 288 288 287 285 283 282 281 280 280 279 279 279 279 277 276 275 275 274 273 273 274 275 278 279 281 281 280 277 275 272 270 270 271 271 272 273 274 274 275 274 273 271 269 264 259 254 248 244 242 240 239 239 238 238 239 240 241 243
289 291 294 296 296 296 295 296 297 298 297 293 290 287 285 288 291 294 294 293 293 292 289 288 288 288 289 289 288 287 287 285 284 282 281 280 281 281 281 281 279 277 276 275 274 274 274 274 275 276 278 280 281 281 280 278 275 273 272 272 272 272 272 272 272 272 272 272 272 271 270 267 263 258 253 248 244 241 239 239 238 238 238 239 240 241
294 294 294 294 295 294 292 291 291 292 292 291 291 290 289 289 290 291 291 292 292 292 290 288 285 284 284 285 286 286 284 284 283 283 282 281 282 282 282 280 279 277 276 276 276 276 277 279 280 281 282 282 282 280 278 276 274 273 272 272 273 273 272 272 272 271 271 270 270 269 269 267 265 262 258 253 248 244 241 240 238 238 238 238 239 240
292 293 292 292 292 291 290 290 289 289 289 291 294 295 296 295 293 289 286 286 286 287 287 285 282 279 278 278 280 281 282 281 281 280 280 279 279 279 278 276 276 277 279 281 284 286 285 287 286 285 283 280 277 274 272 271 271 272 273 273 274 274 274 273 272 271 270 269 269 268 267 266 265 263 260 257 253 248 245 242 239 238 237 237 237 238
292 292 291 290 289 287 286 286 286 287 290 293 295 295 295 293 291 287 282 280 280 281 281 280 279 278 277 275 274 275 276 277 277 278 278 277 276 275 275 276 278 282 287 289 290 289 288 286 284 281 278 273 270 268 266 268 270 272 273 274 275 275 275 274 273 271 270 269 268 267 266 266 264 263 261 259 256 252 248 244 241 238 237 236 236 236
293 292 291 289 286 284 282 282 284 287 293 295 295 292 290 288 285 283 281 279 279 280 280 279 278 277 275 274 274 275 277 279 281 283 283 282 281 280 280 282 283 283 283 283 281 280 280 279 277 275 272 269 267 265 265 268 272 274 274 275 275 275 275 274 273 272 270 269 268 267 266 265 264 263 261 260 258 255 251 247 243 240 237 235 234 233
291 290 287 285 283 280 278 281 287 293 298 298 295 291 287 285 283 281 279 278 279 282 283 283 282 280 275 274 277 283 289 291 292 292 292 290 287 285 283 282 281 279 278 279 281 282 282 279 276 274 271 268 267 266 267 269 271 273 274 275 275 275 274 274 273 271 270 269 268 267 266 264 263 262 261 260 258 256 253 250 246 242 238 235 233 232
288 285 282 280 279 279 282 288 294 298 299 296 291 287 284 282 281 280 278 280 283 286 286 286 287 289 288 288 290 294 300 299 296 294 292 287 284 280 278 279 280 280 279 277 276 276 277 275 273 271 269 267 267 267 268 270 272 273 274 274 275 274 274 273 272 271 270 270 269 267 266 265 263 261 260 259 258 256 254 251 248 244 240 237 234 231
285 283 281 280 280 285 293 298 300 299 295 291 288 285 282 280 279 280 281 283 286 288 288 290 293 297 301 301 300 300 303 299 296 292 289 286 284 283 281 278 277 276 275 272 271 270 270 270 269 269 269 268 268 269 270 272 273 273 274 274 274 274 273 273 272 271 271 270 269 268 267 265 263 261 260 258 257 256 254 252 249 246 242 238 234 231
284 283 282 284 289 295 300 301 300 296 291 288 286 285 284 282 281 281 283 284 287 293 300 303 302 300 298 294 294 297 301 299 296 293 289 287 286 286 284 278 274 272 271 269 268 266 265 265 265 266 267 267 268 269 270 271 272 273 274 274 274 274 273 273 272 271 271 270 269 268 267 266 264 262 260 258 256 255 254 252 250 247 244 240 236 232
287 287 288 294 298 301 300 296 292 288 285 285 285 285 283 282 282 282 283 288 294 299 301 299 296 294 292 292 294 297 301 300 295 289 285 283 283 282 280 276 273 271 269 268 267 265 264 264 265 265 265 265 267 268 269 271 272 273 274 275 275 275 274 274 273 272 271 271 270 268 267 266 264 262 260 258 256 255 253 252 250 247 245 241 237 233
293 294 296 299 299 297 292 288 284 282 282 283 283 282 281 283 285 287 289 294 297 298 297 293 291 291 293 292 293 295 299 296 291 284 279 276 275 274 275 273 271 270 269 268 267 266 265 267 268 267 264 264 266 267 269 272 274 275 277 277 277 277 276 275 274 273 272 271 270 268 267 265 264 262 260 258 256 255 253 251 249 247 245 241 237 234
295 295 296 294 291 286 283 281 279 278 278 279 280 282 285 290 293 294 295 296 297 297 296 292 291 290 291 289 288 289 289 284 279 275 273 271 270 272 276 276 275 273 272 272 273 273 270 268 265 263 261 263 266 270 273 275 278 279 279 279 279 278 277 276 275 274 272 271 270 268 267 265 263 262 260 258 256 254 253 251 249 246 244 241 237 233
292 291 291 288 285 281 278 277 276 275 275 275 278 281 286 290 291 292 293 294 295 294 292 288 286 285 283 282 281 281 279 275 273 274 277 281 285 289 296 297 293 288 283 282 281 279 270 261 256 256 260 266 270 274 277 279 280 281 280 280 279 278 277 276 275 274 273 271 270 268 266 265 263 261 260 258 256 254 252 249 247 245 242 239 235 230
290 287 286 283 281 278 276 274 275 276 277 278 281 282 283 283 283 284 287 288 290 290 288 285 282 280 278 278 278 278 275 275 279 284 288 291 293 295 299 298 294 289 285 284 283 282 275 265 259 257 262 269 274 277 279 280 280 280 281 280 280 279 278 277 275 274 273 271 269 268 266 265 263 261 259 257 254 252 249 247 244 241 238 233 228 220
289 287 284 282 280 278 277 277 279 281 283 285 286 286 284 282 282 283 286 287 288 287 285 283 283 282 283 284 283 280 278 278 278 279 282 283 284 285 287 288 286 283 282 282 283 281 278 273 269 266 264 269 274 277 279 281 282 282 283 283 282 281 279 277 276 274 272 270 269 267 266 264 262 259 256 253 250 246 244 240 236 232 226 219 210 199
292 290 288 287 285 284 284 285 285 287 289 290 290 289 286 286 286 287 289 289 290 289 288 287 287 287 288 287 284 281 280 277 275 275 280 285 287 287 286 285 283 281 281 282 282 280 277 277 276 274 269 271 276 280 282 284 286 287 287 286 284 282 279 277 275 273 271 270 268 266 264 261 257 253 248 243 238 232 227 220 212 204 194 182 175 167
298 295 293 291 290 289 290 291 291 291 292 292 291 290 288 288 289 290 292 295 297 296 293 291 290 289 289 284 281 281 284 287 288 289 291 289 286 284 283 282 279 278 279 281 281 281 281 281 282 281 277 276 280 284 287 290 292 293 292 289 286 282 279 276 273 271 269 268 265 262 257 252 243 230 215 200 185 172 162 152 145 140 137 134 140 142
304 302 299 297 296 295 294 294 294 293 293 292 291 289 288 288 289 291 295 300 300 295 289 288 288 288 288 287 286 288 292 293 294 293 291 282 276 275 279 280 280 279 284 287 290 289 284 280 279 279 277 279 284 290 294 298 299 298 296 292 287 282 277 273 270 267 265 261 256 246 230 208 180 156 141 133 127 123 120 117 115 113 111 109 109 110
307 305 303 301 299 298 296 295 293 292 291 290 289 287 286 285 287 291 297 298 294 288 284 283 284 286 288 290 291 291 290 290 292 293 291 281 275 275 284 291 295 298 303 302 298 290 276 269 268 270 275 285 291 297 300 305 306 305 302 295 289 283 275 268 263 257 250 238 217 185 156 142 133 127 123 120 117 115 113 110 109 107 103 102 102 103
308 306 304 302 300 298 296 293 291 290 289 287 285 284 282 282 284 288 291 288 285 283 283 284 286 287 290 293 292 290 286 287 295 305 306 292 286 288 297 298 299 300 302 299 294 287 277 268 262 273 289 295 298 301 306 312 314 312 307 299 294 287 275 258 241 222 192 163 145 135 129 126 124 122 120 118 115 113 111 109 107 105 101 101 101 100
307 305 303 301 299 297 294 291 289 287 285 283 282 280 280 280 280 280 278 278 279 281 284 286 287 288 290 292 291 289 287 293 307 319 321 298 289 289 294 292 290 288 284 282 283 286 286 282 277 61 317 306 305 308 317 322 323 318 311 304 304 308 341 106 131 132 128 125 123 122 122 122 122 121 119 117 115 113 112 110 108 106 105 104 101 99
305 303 300 299 298 295 292 289 287 284 281 278 277 275 276 277 274 270 268 270 274 278 282 284 285 286 286 284 283 284 287 295 305 311 310 291 283 283 286 285 286 285 283 280 285 291 294 299 315 10 348 329 323 324 327 331 331 325 316 311 314 335 44 70 89 101 106 111 114 116 118 119 119 119 117 116 115 114 112 111 110 109 108 107 105 102
302 300 298 297 295 293 291 288 285 281 277 276 275 275 276 274 270 265 261 261 265 272 279 282 284 285 284 281 279 279 281 288 297 303 302 289 283 283 285 285 288 292 297 294 293 292 292 295 300 307 313 318 323 326 327 334 335 330 321 316 318 334 23 51 72 86 91 100 105 109 112 114 115 114 114 114 113 113 112 112 111 111 111 110 109 108
300 298 297 295 294 292 291 289 286 281 277 277 278 278 275 272 268 264 260 259 262 268 276 280 282 284 285 283 281 280 280 284 293 300 301 289 283 284 286 286 288 293 297 294 291 286 282 283 286 289 292 290 292 309 324 330 334 331 322 317 319 328 349 23 57 77 83 88 94 99 104 107 107 107 110 111 111 112 111 111 110 110 110 111 112 112
299 298 297 296 295 295 295 294 290 286 283 281 279 276 272 269 267 265 264 263 266 270 274 275 277 279 282 284 285 285 285 288 294 297 294 283 280 281 283 281 285 289 291 287 285 282 277 276 275 277 280 279 277 285 320 320 326 329 323 319 320 329 344 12 47 71 80 82 85 89 92 93 94 96 102 107 109 110 110 110 110 110 110 112 113 115
299 298 297 298 298 299 299 299 297 293 290 289 285 279 274 271 270 270 270 270 272 274 275 273 272 272 274 278 281 284 287 291 293 291 284 277 275 276 277 277 280 282 281 279 277 276 276 276 274 272 270 269 272 286 317 314 323 333 335 327 329 340 359 21 45 66 80 84 85 85 84 83 82 86 95 104 107 108 109 109 110 111 113 114 117 119
298 297 298 300 301 302 301 301 300 298 297 296 293 288 282 278 277 278 279 279 279 279 279 276 273 271 270 272 274 278 282 286 286 283 278 273 269 268 269 273 274 273 270 271 272 273 275 276 274 270 263 257 255 265 301 305 325 355 358 335 340 354 13 28 46 64 80 88 91 92 93 93 93 95 100 104 105 106 107 109 111 112 114 116 118 120
298 299 301 303 303 303 302 302 301 301 300 298 296 292 288 284 283 285 287 286 284 281 279 277 275 273 272 271 271 272 274 276 277 275 272 268 263 261 264 269 268 265 261 262 265 268 270 272 271 269 262 250 234 210 213 242 238 52 21 349 359 11 20 30 48 67 83 95 102 105 106 106 107 107 108 107 106 105 105 106 109 111 113 115 116 118
301 302 303 304 304 303 302 302 302 302 300 297 295 292 290 287 287 288 290 290 287 284 279 277 275 274 272 270 269 269 270 271 271 270 267 263 259 258 262 266 265 263 261 260 260 261 262 264 265 265 263 249 213 185 199 202 183 156 133 65 29 21 17 25 47 73 93 103 108 110 109 106 105 106 109 110 111 111 111 111 111 112 112 112 113 115
303 303 304 304 304 303 301 301 301 301 300 297 295 293 291 290 291 293 295 294 291 286 281 277 275 273 271 269 268 268 269 269 268 266 263 259 258 259 261 262 264 265 264 260 258 257 256 258 260 260 257 240 198 176 185 193 188 173 156 127 72 23 9 16 36 67 92 103 108 109 106 98 94 96 102 105 108 110 113 113 113 113 113 114 115 116
304 304 304 304 304 303 300 301 301 300 300 298 297 295 293 295 298 300 301 299 296 291 287 283 280 277 274 270 268 266 266 265 263 260 259 262 263 264 262 262 263 265 266 263 259 255 253 253 254 254 249 231 201 180 179 184 188 184 168 141 123 101 47 33 41 65 90 97 101 102 100 93 89 88 92 94 94 94 99 105 108 109 106 108 114 120
304 304 304 305 304 304 303 302 301 300 299 297 296 295 295 300 303 305 305 304 301 299 296 293 291 289 286 283 277 271 265 258 255 255 263 270 271 269 266 265 266 268 268 264 259 254 250 248 248 245 236 215 193 179 172 174 178 176 154 131 122 111 80 46 36 54 87 90 90 90 90 87 85 85 88 88 87 86 89 95 100 101 99 95 98 105
305 304 304 304 303 302 302 301 301 300 300 299 297 296 298 303 306 307 306 304 303 302 300 297 295 293 292 291 290 285 273 254 249 258 275 280 280 278 275 273 271 269 268 265 262 258 253 249 246 240 223 197 182 170 160 153 143 127 117 137 136 128 107 64 33 51 75 78 78 78 80 83 84 85 85 86 87 89 91 93 93 92 90 87 86 85
303 303 303 302 302 301 301 301 302 302 301 300 299 299 302 307 309 309 306 303 301 301 300 299 296 293 290 290 292 293 290 270 257 268 284 293 297 297 294 286 281 277 274 275 275 276 278 276 278 278 242 187 172 162 151 141 133 127 127 132 124 117 116 122 112 94 82 78 76 78 84 89 89 87 82 79 79 81 86 86 84 82 81 79 80 83
301 302 303 303 303 303 303 302 303 303 302 300 300 301 306 311 311 309 305 302 301 300 300 300 297 294 291 293 296 301 306 305 298 291 288 301 309 313 311 305 300 298 297 301 309 319 331 337 339 336 346 137 139 139 137 134 127 117 99 81 77 79 85 96 101 101 96 90 86 86 92 97 96 91 83 77 74 74 77 83 87 88 86 84 85 89
302 303 304 304 304 303 303 304 304 303 302 300 300 303 309 313 313 309 305 302 302 301 301 300 298 295 294 299 303 308 312 312 313 311 305 308 312 316 318 320 323 327 332 343 354 3 8 1 357 25 97 98 98 101 110 119 118 111 101 95 92 89 84 78 80 89 98 99 98 98 100 99 96 92 89 84 78 71 67 72 80 89 95 98 99 101
304 305 305 305 304 304 304 304 304 304 302 302 303 307 313 315 314 310 306 305 304 304 303 301 297 294 294 298 303 309 314 316 317 317 317 315 316 318 321 326 334 342 352 7 24 33 35 25 19 27 82 101 99 93 88 97 106 112 116 113 106 97 86 75 72 78 90 98 102 105 105 100 96 94 95 93 87 78 65 59 59 65 79 96 106 110
305 306 305 305 305 305 305 305 305 305 303 304 307 311 317 317 315 312 309 308 307 305 304 301 298 295 293 296 301 312 319 322 321 320 320 320 320 322 325 325 330 338 354 18 39 49 52 46 39 35 38 67 95 104 99 94 97 104 111 110 105 98 91 82 74 73 80 85 90 95 102 105 107 108 108 102 96 88 79 65 53 43 42 68 99 114
304 304 304 304 304 305 305 306 305 305 304 307 311 316 318 316 314 312 308 307 306 304 302 300 298 296 294 298 309 324 333 331 327 324 325 324 323 322 323 324 322 324 335 13 39 54 61 56 50 44 39 43 64 91 100 95 91 91 93 97 99 99 96 88 80 75 77 76 76 77 83 98 109 114 114 109 105 100 96 82 66 49 32 41 76 106
303 303 303 304 305 305 305 305 305 305 306 311 316 318 318 315 312 309 306 305 303 302 301 299 297 295 296 307 327 343 347 339 333 332 332 330 327 325 325 325 323 319 312 337 20 45 62 64 58 50 44 41 45 61 91 95 94 88 82 82 89 94 97 92 86 80 79 79 79 81 84 88 95 104 108 109 109 108 106 96 82 62 37 39 65 93
305 304 304 304 304 304 304 304 304 305 309 315 318 318 315 312 310 308 306 307 306 304 302 299 296 297 307 329 350 357 355 345 340 338 338 334 330 328 329 330 330 328 323 331 353 17 47 70 67 56 45 37 35 38 64 86 99 99 87 78 79 87 93 92 86 81 79 80 82 85 88 89 92 98 107 112 114 114 113 108 98 81 53 58 77 93